Location: Bédeille
(43.0872°N, 1.1041°E)
Time: 12:20:18
(UTC+00:00)

CZ-4C R/B - Pass Details

Date: 03 February 2023
Orbit: 456 x 613 km, 98.1° (Epoch: 19 March)

Event Time Altitude Azimuth Distance (km) Brightness Sun altitude
Rises 18:10:01 0° 13° (NNE) 2,695 6.6 -11.3°
Reaches altitude 10° 18:12:12 10° 14° (NNE) 1,772 5.7 -11.6°
Maximum altitude 18:16:00 86° 101° (E) 512 3.1 -12.3°
Drops below altitude 10° 18:19:36 10° 193° (SSW) 1,670 6.1 -13.0°
Sets 18:21:36 0° 193° (SSW) 2,524 7.0 -13.3°
